Notices

What's New in latest Release from April 7th, 2021:

- Updated Glossary, including Speed of Maximum Gust, and Total Hourly Precipitation

- Updated national and regional climate services offices contacts and prices information

- Addition of station inventory lists for 1981-2010, 1971-2000, and 1961-1990 Normals.

If you haven't already, please take our survey and provide feedback about our website: https://eccc.sondage-survey.ca/f/LanguageSelection.aspx?s=442ca660-fcf1-47c0-95a9-59707d6fd709

Hourly Data Report for October 10, 2020

L'ASSOMPTION
QUEBEC
Current Station Operator: ECCC - MSC

45°48'34.000" N
73°26'05.000" W
21.00 m
7014160
71524
WEW

Download Data

Hourly Data (October 2020)
Hourly Data Report for October 10, 2020
TIME
LST
Temp Definition
°C
Dew Point Definition
°C
Rel Hum Definition
%
Precip. Amount Definition
mm

Wind Dir Definition
10's deg

Wind Spd Definition
km/h
Visibility Definition
km
Stn Press Definition
kPa
Hmdx Definition


Wind Chill Definition


Weather Definition


00:00 12.0 5.6 65 0.0 17 9   100.60     LegendNANA
01:00 11.6 6.5 71 0.0 17 9   100.47     LegendNANA
02:00 11.7 7.3 74 0.0 17 8   100.33     LegendNANA
03:00 10.5 6.9 78 0.0 29 4   100.26     LegendNANA
04:00 9.4 5.7 77 0.0 32 3   100.24     LegendNANA
05:00 7.5 5.1 85 0.0 22 4   100.18     LegendNANA
06:00 7.9 6.2 89 0.0 23 4   100.19     LegendNANA
07:00 9.4 6.9 84 0.0 21 5   100.18     LegendNANA
08:00 14.7 9.5 71 0.0 24 4   100.18     LegendNANA
09:00 19.5 9.5 53 0.0 21 24   100.12     LegendNANA
10:00 21.2 10.6 51 0.0 21 26   100.05     LegendNANA
11:00 22.6 11.8 50 0.0 22 24   100.02 25   LegendNANA
12:00 23.5 12.8 51 0.0 22 21   99.91 26   LegendNANA
13:00 23.2 13.7 55 0.0 22 28   99.89 26   LegendNANA
14:00 22.6 14.4 60 0.0 22 24   99.81 26   LegendNANA
15:00 22.1 15.0 64 0.0 21 31   99.64 26   LegendNANA
16:00 21.1 15.4 70 0.0 22 25   99.66 25   LegendNANA
17:00 13.8 13.0 95 3.5 28 12   99.97     LegendNANA
18:00 14.5 13.7 95 1.8 26 8   100.18     LegendNANA
19:00 14.1 8.6 70 0.0 30 23   100.44     LegendNANA
20:00 12.3 7.1 71 0.0 31 16   100.68     LegendNANA
21:00 11.4 5.3 66 0.0 32 13   100.94     LegendNANA
22:00 9.6 3.2 65 0.0 32 19   101.14     LegendNANA
23:00 8.0 2.8 69 0.0 33 13   101.28     LegendNANA

Notes on Data Quality.

Legend

  • E = Estimated
  • M = Missing
  • NA = Not Available*
  • [empty] = Indicates an unobserved value
Date modified: